Time,TemperatureF,DewpointF,PressureIn,WindDirection,WindDirectionDegrees,WindSpeedMPH,WindSpeedGustMPH,Humidity,HourlyPrecipIn,Conditions,Clouds,dailyrainin,SoftwareType,DateUTC
2013-06-02 00:03:00,70.0,-99.9,29.87,SSW,207,4.0,12.0,84,0.00,,,0.00,,2013-06-02 04:03:00,
2013-06-02 00:13:00,70.0,65.0,29.87,SSW,207,4.0,12.0,84,0.00,,,0.00,,2013-06-02 04:13:00,
2013-06-02 00:23:00,71.0,66.0,29.87,SSW,210,4.0,12.0,84,0.00,,,0.00,,2013-06-02 04:23:00,
2013-06-02 00:33:00,71.0,66.0,29.86,SSW,206,2.0,12.0,84,0.00,,,0.00,,2013-06-02 04:33:00,
2013-06-02 00:42:00,71.0,66.0,29.86,SSW,206,2.0,12.0,84,0.00,,,0.00,,2013-06-02 04:42:00,
2013-06-02 00:53:00,71.0,66.0,29.86,SSE,168,7.0,16.0,83,0.00,,,0.00,,2013-06-02 04:53:00,
2013-06-02 01:03:00,71.0,66.0,29.86,SSW,205,4.0,10.0,83,0.00,,,0.00,,2013-06-02 05:03:00,
2013-06-02 01:12:00,71.0,66.0,29.86,SSW,205,4.0,10.0,83,0.00,,,0.00,,2013-06-02 05:12:00,
2013-06-02 01:22:00,70.0,65.0,29.86,SW,234,3.0,12.0,84,0.00,,,0.00,,2013-06-02 05:22:00,
2013-06-02 01:32:00,70.0,65.0,29.86,South,179,6.0,13.0,85,0.00,,,0.00,,2013-06-02 05:32:00,
2013-06-02 01:42:00,70.0,65.0,29.86,South,179,6.0,13.0,85,0.00,,,0.00,,2013-06-02 05:42:00,
2013-06-02 01:52:00,69.0,65.0,29.85,South,187,2.0,10.0,86,0.00,,,0.00,,2013-06-02 05:52:00,
2013-06-02 02:01:00,69.0,65.0,29.85,SW,218,4.0,10.0,86,0.00,,,0.00,,2013-06-02 06:01:00,
2013-06-02 02:12:00,69.0,65.0,29.85,SW,214,2.0,10.0,87,0.00,,,0.00,,2013-06-02 06:12:00,
2013-06-02 02:21:00,69.0,65.0,29.85,SW,214,2.0,10.0,87,0.00,,,0.00,,2013-06-02 06:21:00,
2013-06-02 02:32:00,68.0,64.0,29.84,SW,216,5.0,11.0,88,0.00,,,0.00,,2013-06-02 06:32:00,
2013-06-02 02:42:00,68.0,64.0,29.84,SW,216,5.0,11.0,88,0.00,,,0.00,,2013-06-02 06:42:00,
2013-06-02 02:52:00,68.0,64.0,29.84,South,171,4.0,10.0,88,0.00,,,0.00,,2013-06-02 06:52:00,
2013-06-02 03:02:00,68.0,65.0,29.84,SW,228,3.0,11.0,89,0.00,,,0.00,,2013-06-02 07:02:00,
2013-06-02 03:11:00,68.0,65.0,29.84,SW,228,3.0,11.0,89,0.00,,,0.00,,2013-06-02 07:11:00,
2013-06-02 03:21:00,68.0,65.0,29.84,SSE,167,1.0,10.0,89,0.00,,,0.00,,2013-06-02 07:21:00,
2013-06-02 03:32:00,67.0,64.0,29.84,SSE,165,1.0,10.0,89,0.00,,,0.00,,2013-06-02 07:32:00,
2013-06-02 03:42:00,67.0,64.0,29.84,South,184,3.0,11.0,89,0.00,,,0.00,,2013-06-02 07:42:00,
2013-06-02 03:52:00,67.0,64.0,29.84,South,184,3.0,11.0,89,0.00,,,0.00,,2013-06-02 07:52:00,
2013-06-02 04:02:00,66.0,63.0,29.83,South,188,3.0,8.0,90,0.00,,,0.00,,2013-06-02 08:02:00,
2013-06-02 04:12:00,66.0,63.0,29.83,South,188,3.0,8.0,90,0.00,,,0.00,,2013-06-02 08:12:00,
2013-06-02 04:21:00,66.0,63.0,29.83,South,183,2.0,10.0,90,0.00,,,0.00,,2013-06-02 08:21:00,
2013-06-02 04:32:00,65.0,62.0,29.83,South,188,4.0,7.0,91,0.00,,,0.00,,2013-06-02 08:32:00,
2013-06-02 04:42:00,65.0,62.0,29.83,SSW,197,2.0,8.0,91,0.00,,,0.00,,2013-06-02 08:42:00,
2013-06-02 04:52:00,65.0,62.0,29.83,SSW,197,2.0,8.0,91,0.00,,,0.00,,2013-06-02 08:52:00,
2013-06-02 05:01:00,65.0,62.0,29.83,SSE,164,1.0,7.0,91,0.00,,,0.00,,2013-06-02 09:01:00,
2013-06-02 05:11:00,65.0,62.0,29.83,SSE,164,1.0,7.0,91,0.00,,,0.00,,2013-06-02 09:11:00,
2013-06-02 05:21:00,65.0,63.0,29.83,SSW,208,1.0,7.0,92,0.00,,,0.00,,2013-06-02 09:21:00,
2013-06-02 05:33:00,64.0,62.0,29.84,SSW,200,2.0,5.0,92,0.00,,,0.00,,2013-06-02 09:33:00,
2013-06-02 05:42:00,64.0,62.0,29.84,SSW,200,2.0,5.0,92,0.00,,,0.00,,2013-06-02 09:42:00,
2013-06-02 05:53:00,64.0,62.0,29.84,SSW,192,2.0,5.0,92,0.00,,,0.00,,2013-06-02 09:53:00,
2013-06-02 06:02:00,64.0,62.0,29.84,SSW,192,1.0,5.0,92,0.00,,,0.00,,2013-06-02 10:02:00,
2013-06-02 06:12:00,64.0,62.0,29.84,SSW,192,1.0,5.0,92,0.00,,,0.00,,2013-06-02 10:12:00,
2013-06-02 06:22:00,64.0,62.0,29.84,South,177,4.0,10.0,93,0.00,,,0.00,,2013-06-02 10:22:00,
2013-06-02 06:33:00,65.0,63.0,29.84,SSW,202,4.0,10.0,93,0.00,,,0.00,,2013-06-02 10:33:00,
2013-06-02 06:42:00,65.0,63.0,29.84,SSW,202,4.0,10.0,93,0.00,,,0.00,,2013-06-02 10:42:00,
2013-06-02 06:52:00,65.0,63.0,29.84,SSW,207,2.0,7.0,93,0.00,,,0.00,,2013-06-02 10:52:00,
2013-06-02 07:02:00,66.0,64.0,29.84,SW,225,3.0,12.0,93,0.00,,,0.00,,2013-06-02 11:02:00,
2013-06-02 07:12:00,66.0,64.0,29.84,SW,225,3.0,12.0,93,0.00,,,0.00,,2013-06-02 11:12:00,
2013-06-02 07:22:00,67.0,65.0,29.84,SW,221,4.0,12.0,92,0.00,,,0.00,,2013-06-02 11:22:00,
2013-06-02 07:32:00,68.0,65.0,29.84,SW,227,2.0,10.0,90,0.00,,,0.00,,2013-06-02 11:32:00,
2013-06-02 07:42:00,68.0,65.0,29.84,SW,227,2.0,10.0,90,0.00,,,0.00,,2013-06-02 11:42:00,
2013-06-02 07:52:00,69.0,65.0,29.84,SSW,195,4.0,14.0,88,0.00,,,0.00,,2013-06-02 11:52:00,
2013-06-02 08:02:00,71.0,66.0,29.84,SSW,200,3.0,12.0,85,0.00,,,0.00,,2013-06-02 12:02:00,
2013-06-02 08:11:00,71.0,66.0,29.84,SSW,200,3.0,12.0,85,0.00,,,0.00,,2013-06-02 12:11:00,
2013-06-02 08:21:00,72.0,67.0,29.84,SSW,205,4.0,12.0,84,0.00,,,0.00,,2013-06-02 12:21:00,
2013-06-02 08:32:00,73.0,67.0,29.83,South,188,5.0,12.0,82,0.00,,,0.00,,2013-06-02 12:32:00,
2013-06-02 08:42:00,73.0,67.0,29.83,South,188,5.0,12.0,82,0.00,,,0.00,,2013-06-02 12:42:00,
2013-06-02 08:52:00,75.0,68.0,29.83,SSW,208,2.0,10.0,80,0.00,,,0.00,,2013-06-02 12:52:00,
2013-06-02 09:01:00,76.0,69.0,29.83,South,174,4.0,11.0,78,0.00,,,0.00,,2013-06-02 13:01:00,
2013-06-02 09:12:00,76.0,69.0,29.83,South,174,4.0,11.0,78,0.00,,,0.00,,2013-06-02 13:12:00,
2013-06-02 09:21:00,77.0,69.0,29.82,SSW,194,4.0,13.0,77,0.00,,,0.00,,2013-06-02 13:21:00,
2013-06-02 09:32:00,78.0,69.0,29.82,SE,142,5.0,13.0,75,0.00,,,0.00,,2013-06-02 13:32:00,
2013-06-02 09:42:00,78.0,69.0,29.82,SE,142,5.0,13.0,75,0.00,,,0.00,,2013-06-02 13:42:00,
2013-06-02 09:52:00,79.0,70.0,29.82,SW,223,5.0,12.0,75,0.00,,,0.00,,2013-06-02 13:52:00,
2013-06-02 10:02:00,79.0,70.0,29.81,SW,215,5.0,13.0,73,0.00,,,0.00,,2013-06-02 14:02:00,
2013-06-02 10:11:00,80.0,71.0,29.81,SW,236,6.0,16.0,75,0.00,,,0.00,,2013-06-02 14:11:00,
2013-06-02 10:21:00,80.0,71.0,29.81,SW,236,6.0,16.0,75,0.00,,,0.00,,2013-06-02 14:21:00,
2013-06-02 10:32:00,80.0,71.0,29.81,SW,217,6.0,17.0,74,0.00,,,0.00,,2013-06-02 14:32:00,
2013-06-02 10:42:00,80.0,71.0,29.81,SW,217,6.0,17.0,74,0.00,,,0.00,,2013-06-02 14:42:00,
2013-06-02 10:52:00,81.0,71.0,29.80,SSW,195,4.0,15.0,72,0.00,,,0.00,,2013-06-02 14:52:00,
2013-06-02 11:01:00,83.0,72.0,29.80,SW,227,6.0,13.0,69,0.00,,,0.00,,2013-06-02 15:01:00,
2013-06-02 11:11:00,83.0,72.0,29.80,SW,227,6.0,13.0,69,0.00,,,0.00,,2013-06-02 15:11:00,
2013-06-02 11:21:00,83.0,72.0,29.80,SSW,198,7.0,20.0,70,0.00,,,0.00,,2013-06-02 15:21:00,
2013-06-02 11:33:00,84.0,72.0,29.80,SE,141,8.0,15.0,68,0.00,,,0.00,,2013-06-02 15:33:00,
2013-06-02 11:43:00,84.0,72.0,29.80,SW,236,8.0,20.0,68,0.00,,,0.00,,2013-06-02 15:43:00,
2013-06-02 11:53:00,84.0,72.0,29.80,SW,236,8.0,20.0,68,0.00,,,0.00,,2013-06-02 15:53:00,
2013-06-02 12:03:00,83.0,71.0,29.80,South,181,7.0,18.0,67,0.00,,,0.00,,2013-06-02 16:03:00,
2013-06-02 12:13:00,83.0,71.0,29.80,South,181,7.0,18.0,67,0.00,,,0.00,,2013-06-02 16:13:00,
2013-06-02 12:23:00,83.0,70.0,29.80,SSE,161,9.0,20.0,66,0.00,,,0.00,,2013-06-02 16:23:00,
2013-06-02 12:33:00,84.0,72.0,29.80,SSW,213,6.0,15.0,68,0.00,,,0.00,,2013-06-02 16:33:00,
2013-06-02 12:42:00,84.0,72.0,29.80,SSW,213,6.0,15.0,68,0.00,,,0.00,,2013-06-02 16:42:00,
2013-06-02 12:52:00,84.0,72.0,29.79,SSW,213,7.0,20.0,67,0.00,,,0.00,,2013-06-02 16:52:00,
2013-06-02 13:02:00,85.0,71.0,29.78,SSW,195,8.0,23.0,63,0.00,,,0.00,,2013-06-02 17:02:00,
2013-06-02 13:12:00,87.0,73.0,29.78,SW,220,1.0,23.0,63,0.00,,,0.00,,2013-06-02 17:12:00,
2013-06-02 13:23:00,87.0,73.0,29.78,SW,220,1.0,23.0,63,0.00,,,0.00,,2013-06-02 17:23:00,
2013-06-02 13:32:00,87.0,71.0,29.78,SSW,209,9.0,36.0,60,0.00,,,0.00,,2013-06-02 17:32:00,
2013-06-02 13:42:00,87.0,72.0,29.78,South,180,11.0,19.0,62,0.00,,,0.00,,2013-06-02 17:42:00,
2013-06-02 13:52:00,87.0,72.0,29.78,South,180,11.0,19.0,62,0.00,,,0.00,,2013-06-02 17:52:00,
2013-06-02 14:02:00,86.0,72.0,29.77,SW,219,10.0,20.0,63,0.00,,,0.00,,2013-06-02 18:02:00,
2013-06-02 14:11:00,86.0,70.0,29.77,SSW,195,7.0,28.0,60,0.00,,,0.00,,2013-06-02 18:11:00,
2013-06-02 14:21:00,86.0,70.0,29.77,SSW,195,7.0,28.0,60,0.00,,,0.00,,2013-06-02 18:21:00,
2013-06-02 14:32:00,87.0,71.0,29.76,SSW,192,13.0,27.0,59,0.00,,,0.00,,2013-06-02 18:32:00,
2013-06-02 14:42:00,87.0,71.0,29.76,SSW,193,13.0,32.0,59,0.00,,,0.00,,2013-06-02 18:42:00,
2013-06-02 14:52:00,87.0,71.0,29.76,SSW,193,13.0,32.0,59,0.00,,,0.00,,2013-06-02 18:52:00,
2013-06-02 15:01:00,87.0,70.0,29.75,SSW,198,10.0,28.0,58,0.00,,,0.00,,2013-06-02 19:01:00,
2013-06-02 15:11:00,87.0,70.0,29.75,SSW,198,10.0,28.0,58,0.00,,,0.00,,2013-06-02 19:11:00,
2013-06-02 15:21:00,87.0,70.0,29.75,SSW,201,13.0,33.0,57,0.00,,,0.00,,2013-06-02 19:21:00,
2013-06-02 15:32:00,86.0,69.0,29.74,SSW,196,8.0,31.0,57,0.00,,,0.00,,2013-06-02 19:32:00,
2013-06-02 15:42:00,86.0,69.0,29.74,SSW,196,8.0,31.0,57,0.00,,,0.00,,2013-06-02 19:42:00,
2013-06-02 15:52:00,86.0,70.0,29.73,SSW,209,9.0,24.0,59,0.00,,,0.00,,2013-06-02 19:52:00,
2013-06-02 16:02:00,84.0,70.0,29.74,South,189,7.0,24.0,62,0.00,,,0.00,,2013-06-02 20:02:00,
2013-06-02 16:11:00,84.0,70.0,29.74,South,189,7.0,24.0,62,0.00,,,0.00,,2013-06-02 20:11:00,
2013-06-02 16:22:00,83.0,70.0,29.74,SSE,153,4.0,22.0,64,0.00,,,0.00,,2013-06-02 20:22:00,
2013-06-02 16:32:00,83.0,70.0,29.74,SSW,213,5.0,23.0,64,0.00,,,0.00,,2013-06-02 20:32:00,
2013-06-02 16:42:00,83.0,70.0,29.74,SSW,213,5.0,23.0,64,0.00,,,0.00,,2013-06-02 20:42:00,
2013-06-02 16:52:00,82.0,69.0,29.73,South,191,13.0,31.0,65,0.00,,,0.00,,2013-06-02 20:52:00,
2013-06-02 17:02:00,82.0,69.0,29.73,SSE,160,8.0,23.0,66,0.00,,,0.00,,2013-06-02 21:02:00,
2013-06-02 17:12:00,82.0,69.0,29.73,SSW,205,13.0,28.0,64,0.00,,,0.00,,2013-06-02 21:12:00,
2013-06-02 17:21:00,82.0,69.0,29.73,SSW,205,13.0,28.0,64,0.00,,,0.00,,2013-06-02 21:21:00,
2013-06-02 17:33:00,81.0,69.0,29.74,South,187,10.0,27.0,67,0.00,,,0.00,,2013-06-02 21:33:00,
2013-06-02 17:42:00,81.0,69.0,29.74,South,187,10.0,27.0,67,0.00,,,0.00,,2013-06-02 21:42:00,
2013-06-02 17:53:00,80.0,69.0,29.74,South,183,5.0,30.0,69,0.00,,,0.00,,2013-06-02 21:53:00,
2013-06-02 18:03:00,79.0,68.0,29.73,SSW,205,15.0,28.0,69,0.00,,,0.00,,2013-06-02 22:03:00,
2013-06-02 18:12:00,79.0,68.0,29.73,SSW,205,15.0,28.0,69,0.00,,,0.00,,2013-06-02 22:12:00,
2013-06-02 18:23:00,78.0,68.0,29.72,SW,215,13.0,23.0,71,0.00,,,0.00,,2013-06-02 22:23:00,
2013-06-02 18:33:00,77.0,67.0,29.73,SW,234,13.0,30.0,71,0.00,,,0.00,,2013-06-02 22:33:00,
2013-06-02 18:42:00,77.0,67.0,29.73,SW,234,13.0,30.0,71,0.00,,,0.00,,2013-06-02 22:42:00,
2013-06-02 18:52:00,77.0,68.0,29.75,SSW,208,13.0,25.0,73,0.00,,,0.00,,2013-06-02 22:52:00,
2013-06-02 19:02:00,76.0,67.0,29.75,SSW,201,12.0,27.0,73,0.00,,,0.00,,2013-06-02 23:02:00,
2013-06-02 19:12:00,76.0,67.0,29.75,SSW,201,12.0,27.0,73,0.00,,,0.00,,2013-06-02 23:12:00,
2013-06-02 19:22:00,75.0,66.0,29.76,SSW,201,12.0,25.0,74,0.00,,,0.00,,2013-06-02 23:22:00,
2013-06-02 19:32:00,75.0,67.0,29.77,SW,215,9.0,18.0,75,0.00,,,0.00,,2013-06-02 23:32:00,
2013-06-02 19:42:00,75.0,67.0,29.77,SW,215,9.0,18.0,75,0.00,,,0.00,,2013-06-02 23:42:00,
2013-06-02 19:52:00,74.0,66.0,29.76,SW,216,8.0,19.0,75,0.00,,,0.00,,2013-06-02 23:52:00,
2013-06-02 20:01:00,73.0,65.0,29.77,SSW,212,5.0,18.0,76,0.00,,,0.00,,2013-06-03 00:01:00,
2013-06-02 20:12:00,73.0,65.0,29.77,SSW,196,5.0,15.0,76,0.00,,,0.00,,2013-06-03 00:12:00,
2013-06-02 20:22:00,73.0,65.0,29.77,SSW,196,5.0,15.0,76,0.00,,,0.00,,2013-06-03 00:22:00,
2013-06-02 20:32:00,73.0,65.0,29.77,WSW,243,9.0,16.0,77,0.00,,,0.00,,2013-06-03 00:32:00,
2013-06-02 20:42:00,72.0,64.0,29.77,WSW,241,7.0,14.0,76,0.00,,,0.00,,2013-06-03 00:42:00,
2013-06-02 20:52:00,72.0,64.0,29.77,WSW,241,7.0,14.0,76,0.00,,,0.00,,2013-06-03 00:52:00,
2013-06-02 21:01:00,72.0,64.0,29.77,SSW,207,8.0,14.0,77,0.00,,,0.00,,2013-06-03 01:01:00,
2013-06-02 21:11:00,72.0,64.0,29.77,SSW,207,8.0,14.0,77,0.00,,,0.00,,2013-06-03 01:11:00,
2013-06-02 21:21:00,71.0,64.0,29.77,SSE,163,4.0,13.0,78,0.00,,,0.00,,2013-06-03 01:21:00,
2013-06-02 21:32:00,71.0,64.0,29.78,SSW,200,2.0,14.0,79,0.00,,,0.00,,2013-06-03 01:32:00,
2013-06-02 21:42:00,71.0,64.0,29.78,SSW,200,2.0,14.0,79,0.00,,,0.00,,2013-06-03 01:42:00,
2013-06-02 21:52:00,71.0,64.0,29.78,South,186,1.0,16.0,79,0.00,,,0.00,,2013-06-03 01:52:00,
2013-06-02 22:02:00,70.0,64.0,29.78,SW,227,8.0,17.0,80,0.00,,,0.00,,2013-06-03 02:02:00,
2013-06-02 22:12:00,70.0,64.0,29.78,SW,227,8.0,17.0,80,0.00,,,0.00,,2013-06-03 02:12:00,
2013-06-02 22:22:00,70.0,64.0,29.78,SW,214,8.0,14.0,81,0.00,,,0.00,,2013-06-03 02:22:00,
2013-06-02 22:32:00,69.0,64.0,29.78,South,190,5.0,15.0,83,0.00,,,0.00,,2013-06-03 02:32:00,
2013-06-02 22:42:00,69.0,64.0,29.78,South,190,5.0,15.0,83,0.00,,,0.00,,2013-06-03 02:42:00,
2013-06-02 22:52:00,69.0,64.0,29.78,South,182,4.0,15.0,83,0.00,,,0.00,,2013-06-03 02:52:00,
2013-06-02 23:02:00,68.0,63.0,29.78,South,184,5.0,16.0,84,0.00,,,0.00,,2013-06-03 03:02:00,
2013-06-02 23:12:00,68.0,63.0,29.78,WSW,247,5.0,14.0,85,0.00,,,0.00,,2013-06-03 03:12:00,
2013-06-02 23:22:00,68.0,63.0,29.78,WSW,247,5.0,14.0,85,0.00,,,0.00,,2013-06-03 03:22:00,
2013-06-02 23:33:00,68.0,64.0,29.78,SSW,210,4.0,14.0,86,0.00,,,0.00,,2013-06-03 03:33:00,
2013-06-02 23:43:00,68.0,64.0,29.78,SSW,210,4.0,14.0,86,0.00,,,0.00,,2013-06-03 03:43:00,
2013-06-02 23:53:00,68.0,64.0,29.78,SW,219,5.0,14.0,86,0.00,,,0.00,,2013-06-03 03:53:00,